Torna al catalogo

OPS 6226

AttivoMilitareSSO
NORAD 7816·PAYLOAD·🇺🇸 United States

Lanciato May 24, 1975 da Vandenberg Space Force Base

Loading…

Prossimi Passaggi (prossime 24 ore)

TLE

AggiornatoSource: Space-Track

Epoca: Sep 14, 2026, 12:00 UTC

1 07816U 75043A   26257.50066029  .00000135  00000-0  75162-4 0  9995
2 07816  98.6018 101.8783 0050682 279.1112  80.4335 14.25290856372566

Traccia OPS 6226 in tempo reale con AllMySat

Download on the App Store